Regional Weather Roundup
Issued by NWS Sterling, VA

Home | Current Version | Previous Version | Text Only | Print | Product List | Glossary On
Versions: 1 2 3 4 5 6 7 8 9 10 11 12 13 14 15 16 17 18 19 20 21 22 23 24 25 26 27 28
000
ASUS41 KLWX 221711
RWRLWX

REGIONAL WEATHER ROUNDUP
NATIONAL WEATHER SERVICE BALTIMORE MD/WASHINGTON DC
100 PM EDT THU JUN 22 2017

Note: "FAIR" indicates few or no clouds below 12,000 feet
with no significant weather and/or obstructions to visibility.
 TC=TEMPERATURE CELSIUS

 * =Non NWS site. Station does not report precipitation (e.g. rain,
    snow, etc.), thunder, or fog.

DCZ001-MDZ009-015-VAZ040>042-051-053>054-221800-
WASHINGTON METRO

CITY           SKY/WX    TMP DP  RH WIND       PRES   REMARKS
WASHINGTON NAT CLOUDY    87  67  51 NW9       30.02R HX  90
DULLES         CLOUDY    83  68  60 W5        30.02F
ANDREWS AFB    CLOUDY    85  69  57 SW10      30.02R
FT BELVOIR     CLOUDY    88  66  48 SW5       30.01S HX  91
QUANTICO       CLOUDY    89  69  51 SW5       30.03R HX  93
COLLEGE PARK*  CLOUDY    82  66  58 N3        30.02R
LEESBURG*      CLOUDY    86  72  62 CALM      30.03F HX  92

$$

MDZ006>007-011-014-221800-
BALTIMORE METRO

CITY           SKY/WX    TMP DP  RH WIND       PRES   REMARKS
BWI AIRPORT    CLOUDY    83  67  58 W10       30.01R
MD SCIENCE CTR   N/A     86  67  52 MISG      30.01R
MARTIN STATE   PTSUNNY   82  72  69 SE3       30.02S
ANNAPOLIS      CLOUDY    81  73  76 SE7       30.01R
FORT MEADE*    CLOUDY    77  70  78 W7        30.04R

$$

MDZ012-015-019>023-221800-
MARYLAND EASTERN SHORE

CITY           SKY/WX    TMP DP  RH WIND       PRES   REMARKS
OCEAN CITY     PTSUNNY   81  74  79 SW9       30.02F
SALISBURY      CLOUDY    85  72  65 SW8       30.01R HX  91
BAY BRIDGE AP* CLOUDY    84  70  61 S6        30.01R
CAMBRIDGE*     MOSUNNY   84  73  70 S7        30.01R HX  91
EASTON*        MOSUNNY   90  66  45 W7        30.05R HX  92

$$

MDZ017>025-221800-
SOUTHERN MARYLAND

CITY           SKY/WX    TMP DP  RH WIND       PRES   REMARKS
PATUXENT RIVER PTSUNNY   86  70  58 SW7       30.01S HX  90
ST INIGOES     CLOUDY    85  73  67 S6        30.01S HX  91
LEONARDTOWN*   PTSUNNY   86  68  54 SW9       30.04S

$$

MDZ003>005-221800-
NORTH CENTRAL MARYLAND

CITY           SKY/WX    TMP DP  RH WIND       PRES   REMARKS
FREDERICK*     SUNNY     82  66  57 SW7       30.04F
HAGERSTOWN APT CLOUDY    84  69  60 W7        30.01F
WESTMINSTER*   MOSUNNY   86  68  54 SW6       30.02F

$$

MDZ501>502-221800-
WESTERN MARYLAND

CITY           SKY/WX    TMP DP  RH WIND       PRES   REMARKS
OAKLAND*       NOT AVBL
CUMBERLAND*    MOSUNNY   84  70  61 S7        30.05F

$$

VAZ025>031-221800-
SHENANDOAH VALLEY

CITY           SKY/WX    TMP DP  RH WIND       PRES   REMARKS
WINCHESTER*    PTSUNNY   81  66  61 W8        30.03F
FRONT ROYAL*   CLOUDY    82  70  65 S6        30.04S
LURAY*         CLOUDY    82  68  61 SW8       30.06S
NEW MARKET*    CLOUDY    85  66  53 S5        30.04S
STAUNTON*      CLOUDY    83  66  57 S6        30.10S
WAYNESBORO*    CLOUDY    82  68  63 SW6       30.10F

$$

WVZ021-048>050-054>055-221800-
EASTERN WEST VIRGINIA PANHANDLE

CITY           SKY/WX    TMP DP  RH WIND       PRES   REMARKS
MARTINSBURG    CLOUDY    86  68  54 W8        30.01F
PETERSBURG*    CLOUDY    85  69  57 W8        30.06F

$$

VAZ036>039-050-221800-
CENTRAL FOOTHILLS

CITY           SKY/WX    TMP DP  RH WIND       PRES   REMARKS
CHARLOTTESVILL CLOUDY    87  67  51 SW3       30.05F HX  90
CULPEPER*      CLOUDY    86  70  58 SW6       30.04S HX  91
ORANGE*        CLOUDY    86  68  54 S6        30.04S
GORDONSVILLE*  CLOUDY    86  71  60 S7        30.04F HX  91
WARRENTON*     CLOUDY    87  65  47 S6        30.03F

$$

VAZ055>057-221800-
NORTH AND CENTRAL PIEDMONT

CITY           SKY/WX    TMP DP  RH WIND       PRES   REMARKS
FREDERICKSBRG* CLOUDY    88  68  52 S8        30.02S HX  92
STAFFORD*      CLOUDY    85  67  54 SW5       30.07S

$$

NCZ024-NYZ072-PAZ021-071-VAZ022-071-221800-
OTHER REGIONAL OBSERVATIONS

CITY           SKY/WX    TMP DP  RH WIND       PRES   REMARKS
NEW YORK CITY  SUNNY     82  59  45 VRB3      30.01F
PHILADELPHIA   PTSUNNY   86  62  44 SW13      29.99F
PITTSBURGH     CLOUDY    81  71  71 W7        30.01F
ROANOKE        CLOUDY    84  65  52 W8        30.12F
RICHMOND       CLOUDY    87  69  54 S8        30.04S HX  91
RALEIGH        CLOUDY    82  74  76 W9        30.11S

$$

ANZ530>537-221800-
MARINE OBSERVATIONS

STATION/POSITION TIME  TEMP    WIND        PRES
                       AIR SEA DIR/SP/G
                 (UTC) (F)     (DEG/KT/KT) (MB)
THOMAS PT LIGHT  1700   80 78  170/  7/  8   N/A
BALT KEY BRIDGE  1642   79     160/  4/  5 1015.9R
COVE POINT       1642   79     180/  6/  8 1017.1R
LEWISETTA        1642   84 77  270/  4/  5 1016.5S
SOLOMONS ISLAND  1648          250/  9/ 11   N/A
PINEY POINT      1648          190/  1/  2   N/A

$$





USA.gov is the U.S. government's official web portal to all federal, state and local government web resources and services.